GEFSNGP_con_cape1000_138.txt.gz
Probability
0 0 0 0 0 0 0 0 0 0 3 3 10 19 39 48 52 52 45 42 19 19 16 19 16 19 19 23 26 23 19 23 19 16 16 16 13 10 6 10 10 10 10 6
0 0 0 0 0 0 0 0 0 0 6 16 16 32 52 55 52 48 39 45 29 13 13 16 13 19 16 16 19 13 13 13 16 13 13 13 10 6 6 3 3 3 10 6
0 0 0 0 3 3 3 0 3 6 13 23 29 39 48 52 48 42 35 39 19 10 10 6 3 6 10 10 10 10 6 6 6 6 6 6 6 3 3 3 3 6 3 3
0 0 0 0 0 3 3 0 0 3 6 23 29 32 32 35 35 42 45 39 26 16 10 6 3 3 3 3 3 0 3 6 6 3 3 3 6 3 3 3 3 3 3 3
0 0 0 0 0 0 3 6 0 6 23 26 19 35 32 29 19 35 32 35 26 10 10 10 3 3 3 3 3 3 0 0 3 3 3 3 3 0 0 3 0 0 0 0
0 0 0 0 0 0 3 10 16 16 23 23 16 29 32 29 23 16 23 23 19 13 10 10 3 3 3 3 3 3 0 0 0 0 0 3 3 3 0 0 0 0 0 0
0 0 0 0 3 0 0 10 16 19 23 10 10 13 29 19 16 16 23 26 13 10 6 3 3 0 3 6 6 6 0 0 0 3 3 3 3 3 3 0 0 0 0 0
0 0 0 0 6 0 0 6 16 16 6 10 19 23 23 16 23 16 16 16 13 13 6 3 3 6 3 3 10 3 6 3 3 3 3 3 3 3 3 3 3 3 0 0
0 0 0 0 6 6 6 16 13 16 16 23 23 19 19 16 23 23 19 19 19 13 10 6 6 6 3 3 6 6 3 3 0 0 0 0 0 0 0 0 3 3 3 3
0 0 0 6 10 13 16 10 10 10 16 13 19 13 16 13 13 13 16 10 10 16 10 6 3 3 0 0 0 3 0 0 0 0 0 0 0 0 0 0 0 0 0 3
0 0 0 0 13 10 10 10 13 10 10 13 13 13 10 6 6 6 6 3 3 6 6 6 3 0 0 0 0 0 0 0 0 0 0 0 0 0 0 0 0 0 0 0
0 0 0 0 3 10 10 10 10 13 10 6 6 3 3 3 0 0 0 0 3 0 3 3 3 3 3 3 0 0 0 0 0 0 0 0 0 0 0 0 0 0 0 0
0 0 0 0 3 6 10 10 6 3 6 3 0 0 0 0 0 0 3 3 0 0 0 0 0 0 3 0 0 0 0 0 0 0 0 0 0 0 0 0 0 0 0 0
0 0 3 3 3 3 6 3 3 3 0 0 0 0 0 0 0 0 0 0 0 0 0 0 0 0 0 0 0 0 0 0 0 0 0 0 0 0 0 0 0 0 0 0
0 0 3 3 3 0 3 3 3 0 0 0 0 0 0 0 0 0 0 0 0 0 0 0 0 0 0 0 0 0 0 0 0 0 0 0 0 0 0 0 0 0 0 0
0 0 3 3 6 0 0 0 0 0 0 0 0 0 0 0 0 0 0 0 0 0 0 0 0 0 0 0 0 0 0 0 0 0 0 0 0 0 0 0 0 0 0 0
0 0 3 3 3 0 0 0 0 0 0 0 0 0 0 0 0 0 0 0 0 0 0 0 0 0 0 0 0 0 0 0 0 0 0 0 0 0 0 0 0 0 0 0
0 0 0 3 3 0 0 0 0 0 0 0 0 0 0 0 0 0 0 0 0 0 0 0 0 0 0 0 0 0 0 0 0 0 0 0 0 0 0 0 0 0 0 0
0 0 0 0 0 0 0 0 0 0 0 0 0 0 0 0 0 0 0 0 0 0 0 0 0 0 0 0 0 0 0 0 0 0 0 0 0 0 0 0 0 0 0 0
0 0 0 0 0 0 0 0 0 0 0 0 0 0 0 0 0 0 0 0 0 0 0 0 0 0 0 0 0 0 0 0 0 0 0 0 0 0 0 0 0 0 0 0
0 0 0 0 0 0 0 0 0 0 0 0 0 0 0 0 0 0 0 0 0 0 0 0 0 0 0 0 0 0 0 0 0 0 0 0 0 0 0 0 0 0 0 0
0 0 0 0 0 0 0 0 0 0 0 0 0 0 0 0 0 0 0 0 0 0 0 0 0 0 0 0 0 0 0 0 0 0 0 0 0 0 0 0 0 0 0 0
0 0 0 0 0 0 0 0 0 0 0 0 0 0 0 0 0 0 0 0 0 0 0 0 0 0 0 0 0 0 0 0 0 0 0 0 0 0 0 0 0 0 0 0
0 0 0 0 0 0 0 0 0 0 0 0 0 0 0 0 0 0 0 0 0 0 0 0 0 0 0 0 0 0 0 0 0 0 0 0 0 0 0 0 0 0 0 0
0 0 0 0 0 0 0 0 0 0 0 0 0 0 0 0 0 0 0 0 0 0 0 0 0 0 0 0 0 0 0 0 0 0 0 0 0 0 0 0 0 0 0 0
0 0 0 0 0 0 0 0 0 0 0 0 0 0 0 0 0 0 0 0 0 0 0 0 0 0 0 0 0 0 0 0 0 0 0 0 0 0 0 0 0 0 0 0
0 0 0 0 0 0 0 0 0 0 0 0 0 0 0 0 0 0 0 0 0 0 0 0 0 0 0 0 0 0 0 0 0 0 0 0 0 0 0 0 0 0 0 0

GEFSNGP_con_cape1000_144.txt.gz
Probability
0 0 0 0 0 0 0 0 0 0 0 3 6 19 32 32 29 42 29 26 23 23 19 16 13 13 16 16 16 19 19 19 10 10 6 6 6 6 3 3 3 3 3 3
0 0 0 0 0 0 0 0 0 0 3 3 6 19 29 29 32 42 32 32 29 19 16 13 13 13 13 6 6 3 3 3 3 3 3 3 3 10 3 3 3 3 3 3
0 0 0 0 0 0 0 0 0 0 3 6 13 16 32 26 26 35 35 26 16 16 13 10 6 6 6 0 0 0 0 0 0 3 3 3 3 3 0 0 3 3 3 3
0 0 0 0 0 0 0 0 0 3 3 6 6 10 16 19 19 29 29 23 6 6 3 3 3 0 0 0 0 0 0 0 0 0 3 3 3 3 3 0 0 3 3 3
0 0 0 0 0 0 0 0 0 3 6 10 10 13 10 10 16 16 19 10 3 0 3 3 0 0 0 0 0 0 0 0 0 0 0 0 3 3 3 0 0 0 0 0
0 0 0 0 0 0 0 0 0 3 3 3 10 10 6 10 16 13 6 0 0 0 0 0 0 0 0 0 0 0 0 0 0 0 0 0 0 0 0 0 0 0 0 0
0 0 0 0 0 0 0 0 0 3 3 6 3 0 6 3 6 6 3 0 0 0 0 0 0 0 0 0 0 0 0 0 0 0 0 0 0 0 0 0 0 0 0 0
0 0 0 0 0 0 0 0 3 3 3 3 3 6 3 3 3 3 6 0 0 0 0 0 0 0 0 0 0 0 0 0 0 0 0 0 0 0 0 0 0 0 0 0
0 0 0 0 0 0 0 3 3 3 3 3 6 10 10 10 10 6 3 3 0 0 0 0 0 0 0 0 0 0 0 0 0 0 0 0 0 0 0 0 0 0 0 0
0 0 0 0 0 0 3 6 10 6 6 10 13 13 3 3 6 6 6 0 0 0 0 0 0 0 0 0 0 0 0 0 0 0 0 0 0 0 0 0 0 0 0 0
0 0 0 0 0 0 3 13 10 6 6 6 13 10 10 6 3 3 3 3 0 0 0 0 0 0 0 0 0 0 0 0 0 0 0 0 0 0 0 0 0 0 0 0
0 0 0 0 0 0 3 13 10 10 10 10 10 10 6 3 0 0 0 0 0 0 0 0 0 0 0 0 0 0 0 0 0 0 0 0 0 0 0 0 0 0 0 0
0 0 0 0 0 3 0 3 3 3 3 6 10 3 0 0 0 0 0 0 0 0 0 0 0 0 0 0 0 0 0 0 0 0 0 0 0 0 0 0 0 0 0 0
0 0 0 0 3 0 3 3 3 0 0 0 0 0 0 0 0 0 0 0 0 0 0 0 0 0 0 0 0 0 0 0 0 0 0 0 0 0 0 0 0 0 0 0
0 0 0 0 0 0 0 0 0 0 0 0 0 0 0 0 0 0 0 0 0 0 0 0 0 0 0 0 0 0 0 0 0 0 0 0 0 0 0 0 0 0 0 0
0 0 3 0 0 0 0 0 0 0 0 0 0 0 0 0 0 0 0 0 0 0 0 0 0 0 0 0 0 0 0 0 0 0 0 0 0 0 0 0 0 0 0 0
0 0 3 0 0 0 0 0 0 0 0 0 0 0 0 0 0 0 0 0 0 0 0 0 0 0 0 0 0 0 0 0 0 0 0 0 0 0 0 0 0 0 0 0
0 0 0 0 0 0 0 0 0 0 0 0 0 0 0 0 0 0 0 0 0 0 0 0 0 0 0 0 0 0 0 0 0 0 0 0 0 0 0 0 0 0 0 0
0 0 0 0 0 0 0 0 0 0 0 0 0 0 0 0 0 0 0 0 0 0 0 0 0 0 0 0 0 0 0 0 0 0 0 0 0 0 0 0 0 0 0 0
0 0 0 0 0 0 0 0 0 0 0 0 0 0 0 0 0 0 0 0 0 0 0 0 0 0 0 0 0 0 0 0 0 0 0 0 0 0 0 0 0 0 0 0
0 0 0 0 0 0 0 0 0 0 0 0 0 0 0 0 0 0 0 0 0 0 0 0 0 0 0 0 0 0 0 0 0 0 0 0 0 0 0 0 0 0 0 0
0 0 0 0 0 0 0 0 0 0 0 0 0 0 0 0 0 0 0 0 0 0 0 0 0 0 0 0 0 0 0 0 0 0 0 0 0 0 0 0 0 0 0 0
0 0 0 0 0 0 0 0 0 0 0 0 0 0 0 0 0 0 0 0 0 0 0 0 0 0 0 0 0 0 0 0 0 0 0 0 0 0 0 0 0 0 0 0
0 0 0 0 0 0 0 0 0 0 0 0 0 0 0 0 0 0 0 0 0 0 0 0 0 0 0 0 0 0 0 0 0 0 0 0 0 0 0 0 0 0 0 0
0 0 0 0 0 0 0 0 0 0 0 0 0 0 0 0 0 0 0 0 0 0 0 0 0 0 0 0 0 0 0 0 0 0 0 0 0 0 0 0 0 0 0 0
0 0 0 0 0 0 0 0 0 0 0 0 0 0 0 0 0 0 0 0 0 0 0 0 0 0 0 0 0 0 0 0 0 0 0 0 0 0 0 0 0 0 0 0
0 0 0 0 0 0 0 0 0 0 0 0 0 0 0 0 0 0 0 0 0 0 0 0 0 0 0 0 0 0 0 0 0 0 0 0 0 0 0 0 0 0 0 0

GEFSNGP_con_cape1000_150.txt.gz
Probability
0 0 0 0 0 0 0 0 0 0 0 3 3 16 35 74 81 84 84 84 87 87 87 81 71 68 68 65 61 52 55 42 52 48 52 52 48 52 52 52 23 29 32 23
0 0 0 0 0 0 0 0 0 0 0 6 10 32 52 74 81 81 81 81 90 84 84 77 71 74 71 68 61 58 45 48 48 42 42 39 35 32 32 29 26 29 29 19
0 0 0 0 0 0 0 0 0 0 0 16 16 42 58 81 87 87 81 84 87 84 84 77 71 71 71 65 52 45 48 35 29 29 29 26 16 16 19 23 23 19 16 16
0 0 0 0 3 3 0 0 0 6 10 23 26 52 61 71 84 90 87 84 84 84 84 77 65 58 61 48 35 32 32 32 26 26 23 13 13 16 13 16 13 13 13 13
0 0 0 0 6 6 3 10 13 13 19 19 39 52 65 68 74 87 84 87 87 81 71 58 52 52 45 39 32 35 29 29 29 23 19 13 6 10 16 13 23 19 16 10
0 0 0 0 10 13 16 6 19 26 32 39 45 23 52 77 77 77 87 84 84 74 58 48 45 45 42 42 35 29 26 26 29 29 23 13 13 16 16 19 19 23 6 10
0 0 0 6 10 16 0 16 35 48 61 61 65 61 71 71 77 81 81 77 77 65 58 48 48 45 39 39 39 29 29 23 29 23 19 19 16 23 19 10 13 10 13 10
0 0 0 6 13 19 29 52 58 71 74 74 74 77 68 74 81 74 71 68 61 61 48 48 45 42 45 39 29 26 29 29 26 23 19 10 19 19 6 10 13 10 10 6
0 0 6 10 19 23 32 48 58 65 68 74 61 58 58 55 55 58 55 55 55 52 48 48 42 39 42 26 23 23 26 29 29 23 19 19 16 16 13 13 6 6 3 3
6 3 3 3 13 16 26 42 48 52 48 52 52 52 45 48 42 35 42 32 42 42 45 35 32 26 23 16 16 16 23 19 19 16 13 13 13 13 10 6 6 6 3 3
6 3 13 19 19 23 26 29 32 35 42 48 55 52 45 45 35 32 35 32 35 29 26 19 19 19 13 13 13 13 16 13 13 13 6 6 10 10 10 13 3 3 6 6
3 10 13 16 16 23 23 23 32 32 35 42 42 39 35 39 32 29 26 23 19 19 16 10 10 10 6 13 13 16 16 13 13 6 6 6 6 0 0 0 0 0 0 0
3 3 6 10 10 19 19 19 23 29 35 39 29 29 29 29 23 23 19 13 13 6 6 6 6 6 6 6 10 13 10 10 3 3 3 3 3 0 0 0 0 0 0 0
3 0 6 10 10 13 16 16 10 19 26 35 32 23 26 23 19 16 13 13 10 10 10 10 10 6 3 6 6 6 3 0 0 3 3 3 3 0 0 0 0 0 0 0
0 0 6 10 13 13 10 13 13 10 13 16 16 16 16 10 10 10 10 6 10 10 6 6 3 3 3 3 3 3 0 0 0 0 3 3 0 0 0 0 0 0 0 0
0 3 6 10 13 10 6 10 13 10 13 10 16 13 10 6 6 6 10 10 10 6 3 3 3 3 3 3 3 0 0 0 0 0 0 0 0 0 0 0 0 0 0 0
3 3 3 6 6 3 3 3 10 6 6 10 6 10 6 6 6 6 3 3 3 3 0 0 0 0 0 0 0 0 0 0 0 0 0 0 0 0 0 0 0 0 0 0
0 3 3 0 0 3 3 3 6 10 6 3 6 6 3 3 3 0 0 0 0 0 0 0 0 0 0 0 0 0 0 0 0 0 0 0 0 0 0 0 0 0 0 0
0 0 0 0 0 3 3 3 10 13 10 3 6 3 3 3 0 0 0 0 0 0 0 0 0 0 0 0 0 0 0 0 0 0 0 0 0 0 0 0 0 0 0 0
0 0 0 0 0 0 3 6 10 13 13 6 3 3 0 0 0 0 0 0 0 0 0 0 0 0 0 0 0 0 0 0 0 0 0 0 0 0 0 0 0 0 0 0
0 0 0 0 0 0 3 6 10 10 10 6 6 6 3 0 0 0 0 0 0 0 0 0 0 0 0 0 0 0 0 0 0 0 0 0 0 0 0 0 0 0 0 0
0 0 0 0 0 0 0 3 3 0 0 6 6 3 0 0 0 0 0 0 0 0 0 0 0 0 0 0 0 0 0 0 0 0 0 0 0 0 0 0 0 0 0 0
0 0 0 0 0 0 0 0 0 3 3 6 6 6 3 3 0 0 0 0 0 0 0 0 0 0 0 0 0 0 0 0 0 0 0 0 0 0 0 0 0 0 0 0
0 0 0 0 0 0 0 0 0 3 3 3 6 6 3 6 3 0 0 0 0 0 0 0 0 0 0 0 0 0 0 0 0 0 0 0 0 0 0 0 0 0 0 0
0 0 0 0 0 0 3 3 3 3 3 3 3 3 3 3 3 3 3 0 0 0 0 0 0 0 0 0 0 0 0 0 0 0 0 0 0 0 0 0 0 0 0 0
0 0 0 0 0 0 0 3 3 3 3 3 3 3 3 3 3 3 3 3 0 0 0 0 0 0 0 0 0 0 0 0 0 0 0 0 0 0 0 0 0 0 0 0
0 0 0 0 0 0 0 0 0 0 0 3 0 0 0 0 3 3 3 3 3 0 0 0 0 0 0 0 0 0 0 0 0 0 0 0 0 0 0 0 0 0 0 0

GEFSNGP_con_cape1000_156.txt.gz
Probability
0 0 0 0 0 0 0 0 0 0 3 3 10 19 35 48 71 81 84 87 84 90 90 90 90 90 90 81 77 74 65 65 61 65 65 65 55 55 58 61 48 55 48 35
0 0 0 0 0 0 0 0 0 0 3 6 10 23 35 48 65 77 77 87 90 87 87 90 90 90 87 81 81 74 68 58 58 58 58 58 52 55 52 45 48 35 32 26
0 0 0 0 0 0 0 0 0 0 6 10 19 29 48 55 58 77 81 84 90 87 87 84 81 87 87 77 74 65 65 58 52 45 39 35 35 39 39 42 32 32 29 26
0 0 0 0 0 0 0 6 6 6 13 10 29 39 48 65 71 84 84 87 90 87 84 84 81 81 84 77 65 61 55 48 45 42 42 42 45 39 32 32 23 23 23 26
0 0 0 0 3 3 3 26 29 26 29 23 23 35 39 65 74 84 84 87 90 87 81 84 84 77 77 65 61 55 45 48 45 45 45 45 39 35 35 29 26 23 23 23
3 0 0 0 0 10 10 26 29 26 32 32 35 29 55 71 74 87 84 87 87 81 81 81 84 77 68 61 55 48 45 45 42 42 42 42 35 29 29 29 29 23 23 23
3 0 3 3 6 3 6 35 42 45 52 52 74 68 71 68 77 84 90 94 84 84 81 81 81 74 68 65 55 48 42 42 42 42 42 42 35 29 29 29 26 26 26 26
0 0 10 26 26 39 58 65 52 48 55 65 68 74 71 77 81 87 90 87 81 84 84 74 71 71 68 58 52 42 39 35 35 35 29 26 29 26 29 29 26 26 26 26
10 19 45 45 45 42 48 55 55 61 55 61 65 74 74 81 81 84 87 84 77 71 74 74 68 65 55 48 45 42 35 39 35 32 32 29 26 23 23 23 19 19 16 13
29 26 35 32 26 35 32 39 45 48 48 55 65 61 71 71 71 71 74 71 65 61 55 55 52 48 45 42 35 29 29 29 29 26 23 23 26 13 16 13 13 13 10 6
19 19 26 29 26 26 32 35 35 39 39 48 58 52 52 58 48 55 55 55 61 55 55 52 45 45 35 39 35 29 29 23 23 13 16 13 13 10 10 10 10 10 6 6
16 29 32 29 23 23 26 35 35 35 39 35 42 45 35 42 45 45 48 42 35 35 39 35 32 32 29 32 29 29 26 23 23 16 16 13 6 3 3 0 0 0 0 0
19 16 13 16 16 23 23 29 26 35 39 35 39 32 39 42 45 42 32 32 32 32 32 32 19 19 19 19 26 26 26 19 16 13 6 6 6 6 3 3 0 0 0 0
6 10 10 16 23 19 16 23 23 26 26 29 32 32 35 29 26 19 23 23 26 23 26 23 16 13 13 16 19 16 13 10 10 6 3 0 3 3 3 3 3 0 0 0
3 6 10 16 16 13 16 16 19 19 16 19 23 19 26 26 29 23 23 23 23 23 19 13 10 10 10 6 6 10 3 6 6 6 0 0 0 0 0 0 0 0 0 0
3 6 6 16 16 16 16 16 10 16 16 16 23 23 26 23 19 23 23 19 23 19 16 13 6 3 3 3 3 3 3 3 3 3 3 0 0 0 0 0 0 0 0 0
3 3 3 13 6 6 10 10 6 10 10 16 16 16 19 23 19 19 19 19 19 13 10 6 6 3 3 3 3 3 3 0 0 0 0 0 0 0 0 0 0 0 0 0
3 3 3 3 6 3 6 6 3 3 6 10 16 13 23 23 16 13 10 10 6 6 6 3 3 3 3 3 3 3 3 3 0 0 0 0 0 0 0 0 0 0 0 0
0 0 3 3 3 3 6 3 3 6 6 10 10 13 23 16 13 13 10 6 6 6 6 3 3 3 3 3 3 3 0 0 0 0 0 0 0 0 0 0 0 0 0 0
0 0 0 0 3 3 3 3 6 6 10 10 10 10 19 13 13 10 3 3 3 3 3 3 0 3 3 3 0 3 0 0 0 0 0 0 0 0 0 0 0 0 0 0
0 0 3 3 3 3 3 0 3 10 13 13 10 13 10 13 6 6 3 3 3 3 3 0 3 3 3 0 0 0 0 0 0 0 0 0 0 0 0 0 0 0 0 0
0 0 0 3 3 3 3 6 10 6 10 6 13 13 13 10 6 3 3 3 3 0 0 0 0 0 0 0 0 0 0 0 0 0 0 0 0 0 0 0 0 0 0 0
0 3 3 6 3 3 3 0 0 10 13 13 13 13 13 13 3 3 3 3 3 0 0 0 0 0 0 0 0 0 0 0 0 0 0 0 0 0 0 0 0 0 0 0
3 0 6 6 3 3 0 0 0 10 6 6 6 6 13 10 6 3 3 0 0 0 0 0 0 0 0 0 0 0 0 0 0 0 0 0 0 0 0 0 0 0 0 0
3 6 6 0 0 0 3 10 6 6 6 6 6 6 6 3 6 3 3 3 0 0 0 0 0 0 0 0 0 0 0 0 0 0 0 0 0 0 0 0 0 0 0 0
3 6 6 3 6 3 3 10 10 10 3 3 6 6 3 3 3 3 3 0 0 0 0 0 0 0 0 0 0 0 0 0 0 0 0 0 0 0 0 0 0 0 0 0
0 0 0 3 0 0 3 0 3 3 6 6 3 3 3 3 3 0 0 0 0 0 0 0 0 0 0 0 0 0 0 0 0 0 0 0 0 0 0 0 0 0 0 0

GEFSNGP_con_cape1000_162.txt.gz
Probability
0 0 0 0 0 0 0 0 0 0 3 6 13 19 35 35 39 48 52 55 65 55 55 55 58 45 48 52 35 35 39 39 35 32 26 26 26 23 23 23 19 16 13 6
0 0 0 0 0 0 0 0 0 3 6 10 13 13 26 35 52 55 48 55 61 61 65 65 55 52 39 35 32 29 32 29 26 26 23 19 19 19 19 16 16 13 10 13
0 0 0 0 0 3 13 16 13 16 13 10 23 26 35 45 55 61 58 58 71 74 71 61 42 42 42 32 29 29 19 26 23 23 19 19 19 19 16 16 13 6 3 3
0 0 0 0 0 10 16 23 23 19 26 16 26 35 42 55 68 65 71 68 74 68 68 58 45 42 35 29 29 19 23 26 26 19 19 19 19 16 13 10 3 3 3 3
0 0 0 0 0 0 13 19 23 26 26 35 39 42 48 55 61 74 68 65 61 61 68 61 42 35 35 26 29 23 23 23 19 19 19 16 10 6 3 0 0 0 0 0
0 0 0 0 0 3 6 19 29 32 29 29 42 55 48 55 58 65 71 61 52 58 61 52 39 35 29 26 16 19 23 19 16 19 19 13 6 0 0 0 0 0 0 0
0 0 3 3 16 16 10 23 29 26 32 39 48 48 42 52 58 65 61 52 45 55 58 48 42 32 26 19 16 16 19 19 19 19 16 6 3 3 6 6 3 3 3 3
0 0 0 10 19 29 23 23 29 39 42 42 45 42 48 55 55 52 55 48 52 45 48 39 35 26 23 26 23 16 16 13 16 13 10 10 6 6 6 6 3 3 3 3
0 0 3 6 10 16 16 26 26 32 42 42 42 42 45 48 52 42 42 39 45 48 39 35 29 26 19 16 10 13 16 16 13 10 6 6 6 6 3 0 3 3 3 0
3 6 3 3 16 13 26 26 26 35 35 29 35 32 35 39 39 29 29 35 39 45 39 26 19 19 19 13 10 10 10 10 10 6 6 3 3 3 3 3 0 0 0 0
3 3 10 10 13 13 23 29 26 26 26 26 19 19 19 29 29 29 26 32 32 32 23 19 19 16 13 16 10 10 10 10 3 3 3 3 3 3 3 3 3 0 0 0
0 0 0 6 13 13 19 29 26 23 16 26 16 19 19 19 19 16 23 23 19 19 13 13 13 13 10 6 6 6 6 3 0 0 0 0 0 0 0 0 0 0 0 0
0 0 3 6 19 23 23 23 19 16 16 19 16 13 13 10 13 16 16 13 10 16 10 10 13 10 6 10 6 6 6 3 0 0 0 0 0 0 0 0 0 0 0 0
0 0 3 10 13 16 16 13 10 3 3 6 6 6 6 10 6 6 10 10 6 10 10 10 13 10 6 3 6 6 6 3 0 3 0 0 0 0 0 0 0 0 0 0
0 0 0 6 6 10 10 6 3 3 3 6 3 3 3 3 3 6 10 10 6 6 10 10 10 6 6 6 10 10 10 3 0 0 0 0 0 0 0 0 0 0 0 0
0 0 0 3 6 6 3 3 3 3 3 3 3 3 3 3 3 3 6 10 10 6 6 6 6 6 6 6 10 10 3 3 0 0 0 0 0 0 0 0 0 0 0 0
0 0 0 3 3 3 0 3 3 0 0 3 3 3 3 3 3 3 3 6 6 6 10 6 6 3 3 3 3 3 3 0 0 0 0 0 0 0 0 0 0 0 0 0
0 0 0 0 3 3 0 3 0 0 0 0 3 3 3 3 3 3 3 3 3 3 6 6 3 3 3 3 3 3 3 3 0 0 0 0 0 0 0 0 0 0 0 0
0 0 0 3 3 3 3 0 0 0 0 0 0 0 3 0 3 3 3 3 3 6 6 3 3 3 3 3 3 3 3 3 3 0 0 0 0 0 0 0 0 0 0 0
0 0 0 0 3 0 0 0 0 0 0 0 0 0 3 0 0 3 3 3 3 6 3 3 3 3 3 3 3 3 3 3 0 0 0 0 0 0 0 0 0 0 0 0
0 0 0 3 3 3 0 0 0 0 0 0 0 0 0 3 3 0 3 3 3 3 3 3 3 3 3 3 3 3 3 3 0 0 0 0 0 0 0 0 0 0 0 0
0 0 0 3 3 3 0 0 0 0 0 0 0 0 3 3 3 3 3 0 0 0 0 0 3 3 3 0 0 0 0 0 0 0 0 0 0 0 0 0 0 0 0 0
0 0 0 0 0 0 0 0 0 0 0 0 0 0 3 3 3 3 3 0 0 0 0 0 0 0 0 0 0 0 0 0 0 0 0 0 0 0 0 0 0 0 0 0
0 0 0 0 0 0 0 0 0 0 0 0 0 0 3 3 3 3 0 0 0 0 0 0 0 0 0 0 0 0 0 0 0 0 0 0 0 0 0 0 0 0 0 0
0 0 0 0 0 0 0 0 0 0 0 0 0 0 3 3 3 3 3 0 0 0 0 0 0 0 0 0 0 0 0 0 0 0 0 0 0 0 0 0 0 0 0 0
0 0 0 0 0 0 0 0 0 0 0 0 0 0 0 0 0 0 0 0 0 0 0 0 0 0 0 0 0 0 0 0 0 0 0 0 0 0 0 0 0 0 0 0
0 0 0 0 0 0 0 0 0 0 0 0 0 0 0 0 0 0 0 0 0 0 0 0 0 0 0 0 0 0 0 0 0 0 0 0 0 0 0 0 0 0 0 0

GEFSNGP_con_cape1000_168.txt.gz
Probability
0 0 0 3 0 0 0 0 0 0 0 3 10 16 19 26 32 42 48 58 55 61 52 42 45 39 32 29 29 26 19 23 16 16 16 13 13 13 16 16 10 10 10 6
0 0 3 3 3 6 6 3 3 0 3 6 10 16 23 32 42 48 45 58 61 58 55 45 45 35 29 19 19 19 16 10 13 13 16 16 13 13 13 13 10 6 6 3
0 0 0 3 0 0 6 13 6 10 10 6 16 16 16 23 35 48 55 58 58 61 61 55 42 39 26 23 19 13 10 10 10 16 13 16 16 13 10 10 10 10 6 3
0 0 0 3 0 10 13 19 19 23 32 29 29 19 16 23 32 45 45 52 45 48 55 52 39 29 19 16 13 13 10 10 13 16 13 13 13 13 10 10 10 6 3 3
0 0 0 3 0 6 13 23 26 29 35 39 32 26 26 29 32 32 35 35 39 39 32 26 26 26 16 13 13 13 13 6 6 10 10 10 10 10 10 10 3 3 3 3
0 0 0 0 0 0 3 10 19 26 26 35 19 16 26 26 32 32 35 32 39 32 23 29 16 16 13 10 6 6 6 10 10 10 10 10 6 6 6 3 3 3 0 0
0 0 0 0 3 0 3 3 13 23 23 26 23 13 26 35 39 32 23 29 42 35 26 23 16 10 16 13 13 10 10 6 10 10 6 10 6 3 3 0 0 0 0 0
0 0 3 0 6 3 0 6 23 26 23 29 35 39 48 45 35 39 29 29 29 29 26 23 16 10 13 10 10 10 6 10 10 6 6 6 3 3 0 0 0 0 0 0
0 0 0 0 0 0 6 13 16 16 26 42 42 32 35 29 29 29 29 29 32 23 26 19 13 16 10 10 6 6 6 6 3 3 3 3 3 0 0 0 0 0 0 0
3 3 3 6 6 6 13 16 23 23 26 35 32 29 32 29 23 26 26 32 26 16 19 13 10 6 6 6 6 6 6 3 3 0 0 0 0 0 0 0 0 0 0 0
6 6 10 10 10 10 16 16 13 23 23 23 26 26 23 13 13 16 23 16 19 19 19 10 3 3 3 6 10 6 0 0 0 0 0 0 0 0 0 0 0 0 0 0
6 3 0 3 6 6 16 19 13 19 13 16 16 13 6 10 13 13 13 16 16 13 10 10 3 3 3 3 3 3 3 0 0 0 0 0 0 0 0 0 0 0 0 0
0 0 0 3 6 6 13 10 6 13 13 13 10 10 10 6 6 10 10 10 13 13 6 6 6 3 3 3 3 3 0 0 0 0 0 0 0 0 0 0 0 0 0 0
0 3 3 6 3 3 6 3 6 0 3 10 10 10 10 6 6 6 6 6 3 3 6 6 6 6 3 3 3 3 3 0 3 3 0 0 0 0 0 0 0 0 0 0
0 0 0 0 3 3 3 0 0 0 3 6 6 10 10 6 6 6 6 3 3 3 3 6 6 6 6 3 3 3 3 3 6 6 0 0 0 0 0 0 0 0 0 0
0 0 3 3 0 0 0 0 0 0 0 3 3 6 10 6 6 3 3 3 3 3 3 3 6 6 6 6 3 3 3 3 6 6 0 0 0 0 0 0 0 0 0 0
0 0 0 0 0 0 0 0 0 0 0 3 0 0 3 3 3 3 3 3 3 3 3 3 3 3 3 3 3 3 3 3 0 3 0 0 0 0 0 0 0 0 0 0
0 0 0 0 0 0 0 0 0 0 0 0 0 0 0 0 0 0 0 3 0 0 0 3 3 3 3 3 3 3 3 3 0 3 0 0 0 0 0 0 0 0 0 0
0 0 0 0 0 0 0 0 0 0 0 0 0 0 0 0 0 0 0 0 0 0 0 0 0 3 3 3 3 3 3 3 3 0 0 0 0 0 0 0 0 0 0 0
0 0 0 0 0 0 0 0 0 0 0 0 0 0 0 0 0 0 0 0 0 0 0 0 0 0 0 3 3 3 3 3 3 0 0 0 0 0 0 0 0 0 0 0
0 0 0 0 0 0 0 0 0 0 0 0 0 0 0 0 0 0 0 0 0 0 0 0 0 0 0 0 0 3 3 3 3 3 0 0 0 0 0 0 0 0 0 0
0 0 0 0 0 0 0 0 0 0 0 0 0 0 0 0 0 0 0 0 0 0 0 3 3 0 0 0 0 3 3 3 3 3 3 0 0 0 0 0 0 0 0 0
0 0 0 0 0 0 0 0 0 0 0 0 0 0 0 0 0 0 0 0 0 0 0 3 3 0 0 3 3 3 3 3 3 3 0 0 0 0 0 0 0 0 0 0
0 0 0 0 0 0 0 0 0 0 0 0 0 0 0 0 0 0 0 0 0 0 0 0 0 0 0 3 0 0 0 3 0 0 0 0 0 0 0 0 0 0 0 0
0 0 0 0 0 0 0 0 0 0 0 0 0 0 0 0 0 0 0 0 0 0 0 0 0 0 0 0 0 0 0 0 0 0 0 0 0 0 0 0 0 0 0 0
0 0 0 0 0 0 0 0 0 0 0 0 0 0 0 0 0 0 0 0 0 0 0 0 0 0 0 0 0 0 0 0 0 0 0 0 0 0 0 0 0 0 0 0
0 0 0 0 0 0 0 0 0 0 0 0 0 0 0 0 0 0 0 0 0 0 0 0 0 0 0 0 0 0 0 0 0 0 0 0 0 0 0 0 0 0 0 0